Tampa Macdill AFB, FL

3:53 AM EST on November 18, 2019 (GMT -0500)
MacDill Air Force Base

Weather History for KMCF - September, 2019

Change the Weather History Date:

Wednesday, September 18, 2019

  Actual Average Record
Temperature  
Mean Temperature 82 °F -  
Max Temperature 92 °F 86 °F 94 °F (2016)
Min Temperature 70 °F 73 °F 69 °F (2003)
Cooling Degree Days 16    
Growing Degree Days 32 (Base 50)    
Moisture  
Dew Point 71 °F    
Average Humidity 74    
Maximum Humidity 93    
Minimum Humidity 44    
Precipitation  
Precipitation 0.29 in - - ()
Sea Level Pressure  
Sea Level Pressure 29.97 in    
Wind  
Wind Speed 4 mph (East)    
Max Wind Speed 17 mph    
Max Gust Speed 30 mph    
Visibility 10 miles    
Events Rain , Thunderstorm    
Averages and records for this station are not official NWS values.
T = Trace of Precipitation, MM = Missing Value Source: NWS Daily Summary

Daily Weather History Graph

Daily Weather History Graph

Search for Another Location

Airport or City:

Astronomy

Sep. 18, 2019 Rise Set
Actual Time 7:16 AM EDT 7:31 PM EDT
Civil Twilight 6:53 AM EDT 7:54 PM EDT
Nautical Twilight 6:25 AM EDT 8:22 PM EDT
Astronomical Twilight 5:58 AM EDT 8:49 PM EDT
Moon 10:25 PM EDT 10:59 AM EDT
Length of Visible Light 13h 01m
Length of Day
12h 14m
Waning Gibbous, 82% of the Moon is Illuminated
Sep 18
Waning Gibbous
Sep 21
Last Quarter
Sep 28
New
Oct 5
First Quarter
Oct 13
Full

Hourly Weather History & Observations

Time (EDT) Temp. Heat Index Dew Point Humidity Pressure Visibility Wind Dir Wind Speed Gust Speed Precip Events Conditions
12:56 AM 76.1 °F - 72.5 °F 89% 29.96 in 10.0 mi Calm Calm - N/A   Clear
1:56 AM 76.3 °F - 70.7 °F 83% 29.96 in 10.0 mi NNE 4.6 mph - N/A   Clear
2:56 AM 72.5 °F - 69.1 °F 89% 29.95 in 10.0 mi Calm Calm - N/A   Clear
3:56 AM 71.6 °F - 68.2 °F 89% 29.95 in 10.0 mi NNE 3.5 mph - N/A   Clear
4:56 AM 71.1 °F - 67.6 °F 89% 29.95 in 10.0 mi Calm Calm - N/A   Clear
5:56 AM 70.2 °F - 67.5 °F 91% 29.95 in 10.0 mi Calm Calm - N/A   Clear
6:56 AM 70.7 °F - 68.5 °F 93% 29.97 in 10.0 mi Calm Calm - N/A   Clear
7:56 AM 71.6 °F - 69.1 °F 92% 29.99 in 10.0 mi NNE 3.5 mph - N/A   Clear
9:56 AM 81.9 °F 87.3 °F 73.4 °F 75% 30.00 in 10.0 mi East 4.6 mph - N/A   Clear
10:56 AM 84.4 °F 91.7 °F 73.9 °F 71% 30.00 in 10.0 mi East 8.1 mph - N/A   Clear
11:56 AM 86.5 °F 92.9 °F 72.0 °F 62% 30.01 in 10.0 mi East 6.9 mph - N/A   Clear
12:56 PM 88.3 °F 94.5 °F 71.6 °F 57% 29.99 in 10.0 mi ESE 4.6 mph - N/A   Clear
1:47 PM 89.6 °F 96.2 °F 71.6 °F 55% 29.98 in 10.0 mi SSW 6.9 mph - N/A   Light Drizzle
1:54 PM 89.6 °F 99.8 °F 75.2 °F 62% 29.98 in 10.0 mi SSW 8.1 mph - N/A   Partly Cloudy
1:56 PM 89.4 °F 99.4 °F 74.7 °F 62% 29.98 in 10.0 mi SSW 6.9 mph - 0.00 in   Partly Cloudy
2:56 PM 90.3 °F 98.2 °F 72.9 °F 56% 29.96 in 10.0 mi WSW 5.8 mph - N/A   Clear
3:56 PM 91.9 °F 97.4 °F 70.0 °F 48% 29.94 in 10.0 mi West 5.8 mph - N/A   Partly Cloudy
4:03 PM 93.2 °F 98.8 °F 69.8 °F 46% 29.94 in 10.0 mi WNW 4.6 mph - N/A Rain Light Rain
4:14 PM 93.2 °F 97.7 °F 68.0 °F 44% 29.93 in 10.0 mi West 3.5 mph - N/A   Partly Cloudy
4:54 PM 87.8 °F 92.6 °F 69.8 °F 55% 29.92 in 10.0 mi ESE 4.6 mph - N/A Rain Light Rain
4:56 PM 88.7 °F 93.5 °F 69.8 °F 53% 29.92 in 10.0 mi East 4.6 mph - 0.00 in Rain Light Rain
5:07 PM 87.8 °F 92.6 °F 69.8 °F 55% 29.92 in 10.0 mi East 4.6 mph - N/A   Scattered Clouds
5:56 PM 89.6 °F 94.3 °F 69.1 °F 51% 29.93 in 10.0 mi East 4.6 mph - 0.00 in   Clear
6:15 PM 87.8 °F 93.8 °F 71.6 °F 58% 29.93 in 10.0 mi ENE 3.5 mph - N/A   Light Drizzle
6:25 PM 87.8 °F 93.8 °F 71.6 °F 58% 29.94 in 10.0 mi NNE 4.6 mph - N/A   Scattered Clouds
6:40 PM 86.0 °F 91.8 °F 71.6 °F 62% 29.95 in 10.0 mi North 11.5 mph 16.1 mph N/A   Light Drizzle
6:49 PM 80.6 °F 84.6 °F 71.6 °F 74% 29.95 in 5.0 mi West 17.3 mph 29.9 mph N/A Rain Heavy Rain
6:54 PM 78.8 °F - 69.8 °F 74% 29.94 in 4.0 mi West 9.2 mph 29.9 mph N/A Rain Light Rain
6:56 PM 78.3 °F - 69.3 °F 74% 29.94 in 5.0 mi West 6.9 mph 21.9 mph 0.23 in Rain Light Rain
7:11 PM 77.0 °F - 71.6 °F 83% 29.96 in 10.0 mi ENE 12.7 mph 21.9 mph N/A Thunderstorm Unknown
7:41 PM 75.2 °F - 69.8 °F 83% 29.97 in 8.0 mi ESE 12.7 mph - N/A Rain , Thunderstorm Light Rain
7:50 PM 75.2 °F - 69.8 °F 83% 29.97 in 10.0 mi East 4.6 mph - N/A Thunderstorm Scattered Clouds
7:56 PM 74.3 °F - 70.5 °F 88% 29.98 in 10.0 mi East 4.6 mph - 0.03 in   Scattered Clouds
8:56 PM 75.6 °F - 72.0 °F 89% 29.97 in 10.0 mi Calm Calm - N/A   Partly Cloudy
9:00 PM 75.2 °F - 71.6 °F 89% 29.97 in 10.0 mi Calm Calm - N/A   Light Drizzle
9:05 PM 75.2 °F - 71.6 °F 89% 29.97 in 10.0 mi Calm Calm - N/A   Partly Cloudy
9:56 PM 76.6 °F - 72.7 °F 87% 29.98 in 10.0 mi Calm Calm - 0.00 in   Overcast
10:24 PM 77.0 °F - 73.4 °F 89% 30.00 in 10.0 mi Calm Calm - N/A   Light Drizzle
10:56 PM 76.6 °F - 71.8 °F 85% 30.01 in 10.0 mi ESE 4.6 mph - 0.02 in Rain Light Rain
11:04 PM 77.0 °F - 73.4 °F 89% 30.00 in 10.0 mi ESE 4.6 mph - N/A   Mostly Cloudy
11:14 PM 77.0 °F - 73.4 °F 89% 30.01 in 10.0 mi Calm Calm - N/A   Light Drizzle
11:31 PM 77.0 °F - 73.4 °F 89% 30.01 in 10.0 mi Calm Calm - N/A   Scattered Clouds
11:56 PM 77.0 °F - 73.8 °F 90% 30.01 in 10.0 mi ENE 3.5 mph - 0.01 in   Overcast